GW0774 Weather Reports


time (UTC)temp
F
wind
direction
speed
knots
gust
knots
rain 1hr
in
rain 24hr
in
rain mn
in
humidity
%
barometer
mb
20260904133057 54 247 10.4 17.4 0.00 0.04 0.00 78 1011.1
20260904132539 54 283 10.4 13.9 0.00 0.04 0.00 78 1011.1
20260904132039 54 243 9.6 13.9 0.00 0.04 0.00 79 1011.3
20260904131606 53 257 7.8 13.0 0.00 0.04 0.00 80 1011.2
20260904131039 53 232 6.1 13.9 0.00 0.04 0.00 79 1011.1
20260904130539 54 259 7.0 16.5 0.00 0.04 0.00 78 1011.1
20260904130057 54 244 8.7 16.5 0.00 0.04 0.00 77 1011.1
20260904125539 53 259 6.1 16.5 0.00 0.04 0.00 78 1011.1
20260904125043 53 259 7.8 16.5 0.00 0.04 0.00 77 1011.1
20260904124603 53 249 5.2 14.8 0.00 0.04 0.00 78 1011.1
20260904124039 53 254 6.1 14.8 0.00 0.04 0.00 77 1011.1
20260904123538 53 259 6.1 13.9 0.00 0.04 0.00 77 1011.0
20260904123054 53 272 7.0 16.5 0.00 0.04 0.00 77 1010.9
20260904122539 54 296 7.0 16.5 0.00 0.04 0.00 77 1010.8
20260904122045 53 246 7.0 16.5 0.00 0.04 0.00 78 1010.6
20260904121559 54 247 7.0 18.2 0.00 0.04 0.00 77 1010.6
20260904121038 54 240 9.6 18.2 0.00 0.04 0.00 76 1010.6
20260904120538 54 259 7.0 17.4 0.00 0.04 0.00 76 1010.6
20260904120106 54 239 9.6 20.0 0.00 0.04 0.00 76 1010.6
20260904115538 54 277 7.8 20.0 0.00 0.04 0.04 77 1010.6
20260904115039 54 248 11.3 20.0 0.00 0.04 0.04 77 1010.4
20260904114557 53 279 7.8 13.9 0.00 0.04 0.04 79 1010.3
20260904114040 53 311 7.0 15.6 0.00 0.04 0.04 80 1010.3
20260904113541 53 250 7.0 17.4 0.00 0.04 0.04 80 1010.2
20260904113056 54 298 8.7 17.4 0.00 0.04 0.04 80 1010.2
20260904112540 53 315 9.6 17.4 0.00 0.04 0.04 80 1010.1
20260904112039 53 237 7.8 14.8 0.00 0.04 0.04 80 1009.9
20260904111600 53 284 8.7 16.5 0.00 0.04 0.04 79 1009.9
20260904111039 53 243 9.6 16.5 0.00 0.04 0.04 78 1010.0
20260904110539 53 252 8.7 16.5 0.00 0.04 0.04 77 1010.0
20260904110105 53 269 7.8 20.0 0.00 0.04 0.04 77 1009.9
20260904105539 54 257 9.6 20.0 0.00 0.04 0.04 76 1009.8
20260904105039 53 257 10.4 20.0 0.00 0.04 0.04 77 1009.9
20260904104557 53 252 8.7 14.8 0.00 0.04 0.04 79 1009.9
20260904104039 53 252 8.7 13.9 0.00 0.04 0.04 80 1009.9
20260904103541 53 254 7.8 17.4 0.00 0.04 0.04 80 1009.9
20260904103054 53 316 9.6 18.2 0.00 0.04 0.04 80 1009.9
20260904102539 53 296 7.8 18.2 0.00 0.04 0.04 80 1009.7
20260904102038 53 265 9.6 18.2 0.00 0.04 0.04 80 1009.7
20260904101600 53 249 9.6 18.2 0.00 0.04 0.04 79 1009.6
20260904101038 53 267 8.7 19.1 0.00 0.04 0.04 78 1009.3
20260904100539 53 284 8.7 19.1 0.00 0.04 0.04 77 1009.4
20260904100120 53 230 11.3 20.0 0.00 0.04 0.04 76 1009.3
20260904095541 53 248 9.6 20.0 0.00 0.04 0.04 77 1009.3
20260904095039 53 268 9.6 18.2 0.00 0.04 0.04 77 1009.3
20260904094557 53 254 7.8 19.1 0.00 0.04 0.04 78 1009.2
20260904094039 53 260 8.7 19.1 0.00 0.04 0.04 78 1009.3
20260904093539 53 266 8.7 19.1 0.00 0.04 0.04 78 1009.2
20260904093055 54 261 7.8 21.7 0.00 0.04 0.04 79 1009.0
20260904092539 54 271 9.6 21.7 0.00 0.04 0.04 79 1008.9
20260904092041 54 270 9.6 17.4 0.00 0.04 0.04 80 1008.8
20260904091553 54 256 9.6 18.2 0.00 0.04 0.04 80 1008.8
20260904091042 54 300 7.8 18.2 0.00 0.04 0.04 80 1009.0
20260904090538 54 250 9.6 19.1 0.00 0.04 0.04 81 1009.0
20260904090058 54 288 9.6 19.1 0.00 0.04 0.04 81 1009.1
20260904085538 54 293 8.7 20.9 0.00 0.04 0.04 82 1008.9
20260904085040 54 231 9.6 22.6 0.00 0.04 0.04 81 1008.5
20260904084557 54 287 11.3 22.6 0.00 0.04 0.04 81 1008.3
20260904084040 54 252 11.3 19.1 0.00 0.04 0.04 80 1008.2
20260904083539 54 260 11.3 19.1 0.00 0.04 0.04 80 1008.2
20260904083106 54 273 10.4 19.1 0.00 0.04 0.04 80 1008.4
20260904082539 54 237 11.3 19.1 0.00 0.04 0.04 80 1008.3
20260904082039 54 238 10.4 19.1 0.00 0.04 0.04 80 1008.2
20260904081600 54 264 10.4 20.0 0.00 0.04 0.04 79 1008.3
20260904081039 54 242 11.3 20.9 0.00 0.04 0.04 79 1008.3
20260904080538 54 255 10.4 21.7 0.00 0.04 0.04 79 1008.1
20260904080056 54 250 12.2 21.7 0.00 0.04 0.04 78 1008.0
20260904075539 54 259 13.0 22.6 0.00 0.04 0.04 77 1007.8
20260904075038 54 263 13.9 22.6 0.00 0.04 0.04 76 1007.7
20260904074610 55 272 12.2 22.6 0.00 0.04 0.04 78 1007.6
20260904074039 55 267 11.3 21.7 0.00 0.04 0.04 80 1007.5
20260904073540 55 263 12.2 21.7 0.00 0.04 0.04 82 1007.6
20260904073100 55 236 13.0 24.3 0.00 0.04 0.04 82 1007.5
20260904072539 55 252 13.9 24.3 0.00 0.04 0.04 82 1007.6
20260904072038 55 267 13.0 22.6 0.00 0.04 0.04 83 1007.6
20260904071625 55 243 13.0 22.6 0.00 0.04 0.04 82 1007.5
20260904071039 55 249 11.3 20.0 0.00 0.04 0.04 81 1007.4
20260904070539 55 254 11.3 24.3 0.00 0.04 0.04 80 1007.4
20260904070113 55 281 12.2 25.2 0.00 0.04 0.04 80 1007.4
20260904065539 56 241 13.9 25.2 0.00 0.04 0.04 79 1007.2
20260904065039 56 253 11.3 23.5 0.00 0.04 0.04 79 1007.0
20260904064609 56 252 13.0 23.5 0.00 0.04 0.04 79 1006.8
20260904064039 56 259 13.0 22.6 0.00 0.04 0.04 79 1006.6
20260904063539 56 298 13.0 21.7 0.00 0.04 0.04 79 1006.5
20260904063100 55 244 10.4 27.8 0.00 0.04 0.04 80 1006.6
20260904062541 55 247 12.2 27.8 0.00 0.04 0.04 79 1006.6
20260904062038 55 249 9.6 22.6 0.00 0.04 0.04 80 1006.5
20260904061558 55 262 13.0 22.6 0.00 0.04 0.04 79 1006.7
20260904061039 55 261 9.6 18.2 0.00 0.04 0.04 80 1006.7
20260904060540 55 256 8.7 20.9 0.00 0.04 0.04 80 1006.6
20260904060100 55 239 12.2 20.9 0.00 0.04 0.04 79 1006.7
20260904055539 55 225 11.3 18.2 0.00 0.04 0.04 79 1006.6
20260904055039 55 286 9.6 18.2 0.00 0.04 0.04 79 1006.6
20260904054554 55 324 8.7 20.0 0.00 0.04 0.04 79 1006.6
20260904054040 55 228 9.6 20.0 0.00 0.04 0.04 79 1006.6
20260904053539 55 268 9.6 20.9 0.00 0.04 0.04 79 1006.5
20260904053108 56 260 10.4 20.9 0.00 0.04 0.04 79 1006.2
20260904052540 56 259 10.4 22.6 0.00 0.04 0.04 79 1006.1
20260904052040 56 246 9.6 23.5 0.00 0.04 0.04 79 1006.1
20260904051559 56 307 9.6 23.5 0.00 0.04 0.04 79 1006.1
20260904051039 56 248 9.6 19.1 0.00 0.04 0.04 80 1006.4
20260904050539 56 262 8.7 17.4 0.00 0.04 0.04 80 1006.2
20260904050058 57 241 9.6 26.1 0.00 0.04 0.04 80 1005.9
20260904045539 57 263 7.8 26.1 0.00 0.04 0.04 79 1005.9
20260904045039 57 244 10.4 21.7 0.00 0.04 0.04 78 1005.7
20260904044604 57 296 9.6 21.7 0.00 0.04 0.04 78 1005.7
20260904044040 57 277 10.4 20.9 0.00 0.04 0.04 77 1005.6
20260904043539 58 246 10.4 22.6 0.00 0.04 0.04 76 1005.6
20260904043105 58 308 11.3 22.6 0.00 0.04 0.04 78 1005.7
20260904042541 58 299 14.8 23.5 0.00 0.04 0.04 76 1005.5
20260904042039 58 268 10.4 23.5 0.00 0.04 0.04 75 1005.3
20260904041606 58 344 11.3 22.6 0.00 0.04 0.04 74 1005.2
20260904041039 58 243 12.2 23.5 0.00 0.04 0.04 74 1005.4
20260904040542 58 289 13.0 23.5 0.00 0.04 0.04 74 1005.4
20260904040100 58 307 10.4 24.3 0.00 0.04 0.04 74 1005.5
20260904035541 59 248 11.3 25.2 0.00 0.04 0.04 75 1005.6
20260904035040 59 229 15.6 25.2 0.00 0.04 0.04 74 1005.6
20260904034553 59 259 14.8 23.5 0.00 0.04 0.04 74 1005.6
20260904034039 59 304 11.3 20.9 0.00 0.04 0.04 76 1005.2
20260904033538 59 250 10.4 26.1 0.00 0.04 0.04 78 1005.3
20260904033104 59 265 12.2 26.1 0.00 0.04 0.04 79 1005.1
20260904032538 59 296 15.6 24.3 0.00 0.04 0.04 76 1005.0
20260904032038 59 297 11.3 26.1 0.00 0.04 0.04 78 1005.0
20260904031606 59 254 13.0 26.1 0.00 0.04 0.04 77 1004.9
20260904031038 59 253 13.0 26.1 0.00 0.04 0.04 76 1004.9
20260904030539 59 254 15.6 26.9 0.00 0.04 0.04 77 1004.8
20260904030056 59 254 14.8 26.9 0.00 0.04 0.04 76 1004.8
20260904025539 59 240 13.0 26.1 0.00 0.04 0.04 76 1004.7
20260904025039 60 235 12.2 28.7 0.00 0.04 0.04 76 1004.6
20260904024549 60 250 13.9 28.7 0.00 0.04 0.04 75 1004.3
20260904024039 60 278 14.8 30.4 0.00 0.04 0.04 76 1004.0
20260904023538 60 302 13.9 30.4 0.00 0.04 0.04 78 1003.7
20260904023102 60 271 15.6 32.2 0.00 0.04 0.04 78 1003.2
20260904022542 60 290 17.4 32.2 0.00 0.04 0.04 78 1003.2
20260904022039 60 247 18.2 32.2 0.00 0.04 0.04 80 1003.0
20260904021557 60 248 17.4 31.3 0.00 0.04 0.04 79 1002.9
20260904021038 60 249 18.2 29.5 0.00 0.04 0.04 80 1002.8
20260904020539 61 275 14.8 28.7 0.00 0.04 0.04 81 1003.0
20260904020056 60 277 19.1 30.4 0.00 0.04 0.04 82 1003.3
20260904015539 61 248 17.4 32.2 0.00 0.04 0.04 82 1003.0
20260904015039 61 293 15.6 32.2 0.00 0.04 0.04 81 1003.3
20260904014554 61 264 16.5 32.2 0.00 0.04 0.04 81 1003.3
20260904014039 61 251 13.9 31.3 0.00 0.04 0.04 83 1003.5
20260904013539 61 312 14.8 31.3 0.00 0.04 0.04 84 1003.5
20260904013047 61 281 15.6 28.7 0.00 0.04 0.04 82 1003.5
20260904012539 62 244 12.2 25.2 0.00 0.04 0.04 83 1003.5
20260904012041 62 265 13.9 33.9 0.00 0.04 0.04 84 1003.6
20260904011559 62 280 16.5 33.9 0.00 0.04 0.04 83 1003.4
20260904011039 62 292 17.4 32.2 0.00 0.04 0.04 83 1003.5
20260904010539 62 255 14.8 33.9 0.00 0.04 0.04 83 1003.5
20260904010057 62 229 12.2 33.9 0.00 0.04 0.04 85 1003.9
20260904005541 62 273 11.3 25.2 0.00 0.04 0.04 83 1004.2
20260904005039 62 274 13.0 32.2 0.00 0.04 0.04 86 1004.3
20260904004553 62 257 13.9 33.0 0.00 0.04 0.04 85 1004.4
20260904004039 61 246 15.6 33.0 0.00 0.04 0.04 84 1004.3
20260904003540 61 260 13.0 24.3 0.00 0.04 0.04 86 1004.1
20260904003100 60 244 13.9 32.2 0.00 0.04 0.04 88 1003.8
20260904002538 59 300 13.0 32.2 0.00 0.04 0.04 88 1003.6
20260904002041 60 279 17.4 38.2 0.00 0.04 0.04 88 1003.1
20260904001559 59 261 21.7 38.2 0.00 0.04 0.04 88 1003.2
20260904001040 61 287 22.6 38.2 0.00 0.04 0.04 84 1003.5
20260904000542 61 300 20.0 34.8 0.00 0.04 0.04 83 1003.2
20260904000056 61 275 19.1 37.4 0.00 0.04 0.04 84 1003.4
20260903235543 61 257 20.0 37.4 0.00 0.04 0.04 84 1003.2
20260903235039 61 264 17.4 35.6 0.00 0.04 0.04 85 1003.2
20260903234553 61 259 17.4 34.8 0.00 0.04 0.04 86 1003.3
20260903234039 61 284 17.4 36.5 0.00 0.04 0.04 86 1003.3
20260903233539 61 288 14.8 36.5 0.01 0.04 0.04 86 1003.3
20260903233241 61 322 17.4 34.8 0.01 0.04 0.04 86 1003.1
20260903232536 61 293 16.5 34.8 0.01 0.04 0.04 88 1003.4
20260903232036 60 283 17.4 36.5 0.01 0.04 0.04 89 1003.2
20260903231607 60 296 14.8 36.5 0.02 0.04 0.04 89 1003.7
20260903231040 60 296 19.1 36.5 0.03 0.04 0.04 90 1003.7
20260903230540 59 292 20.0 33.0 0.03 0.04 0.04 92 1003.6
20260903225540 58 273 17.4 30.4 0.03 0.03 0.03 92 1004.1
20260903225042 58 267 12.2 24.3 0.03 0.03 0.03 93 1004.1
20260903224602 57 316 12.2 24.3 0.03 0.03 0.03 93 1003.8
20260903224042 58 269 12.2 24.3 0.03 0.03 0.03 93 1004.0
20260903223539 58 241 13.0 22.6 0.02 0.03 0.03 92 1004.0
20260903223059 58 273 13.9 25.2 0.02 0.03 0.03 91 1004.0
20260903222539 58 285 12.2 25.2 0.02 0.03 0.03 91 1003.9
20260903222040 59 249 12.2 21.7 0.02 0.03 0.03 90 1003.6
20260903221557 59 264 13.0 21.7 0.01 0.02 0.02 89 1003.7
20260903221039 59 276 11.3 22.6 0.00 0.01 0.01 88 1004.0
20260903220542 59 273 13.9 22.6 0.00 0.01 0.01 88 1004.0
20260903220055 60 267 12.2 22.6 0.00 0.00 0.00 87 1003.9
20260903215540 59 277 7.8 20.9 0.00 0.00 0.00 87 1004.2
20260903215039 60 260 8.7 16.5 0.00 0.00 0.00 86 1004.1
20260903214602 60 294 9.6 16.5 0.00 0.00 0.00 87 1004.4
20260903214042 59 273 8.7 15.6 0.00 0.00 0.00 87 1004.4
20260903213538 59 289 8.7 18.2 0.00 0.00 0.00 86 1004.4
20260903213049 59 257 9.6 18.2 0.00 0.00 0.00 85 1004.4
20260903212539 60 320 8.7 18.2 0.00 0.00 0.00 84 1004.4
20260903212039 59 277 9.6 16.5 0.00 0.00 0.00 84 1004.2
20260903211557 59 277 10.4 16.5 0.00 0.00 0.00 84 1004.2
20260903211042 59 261 8.7 17.4 0.00 0.00 0.00 85 1004.2
20260903210540 59 244 9.6 17.4 0.00 0.00 0.00 85 1004.1
20260903210056 59 273 10.4 17.4 0.00 0.00 0.00 84 1004.4
20260903205540 59 265 8.7 17.4 0.00 0.00 0.00 84 1004.7
20260903205044 58 267 7.0 12.2 0.00 0.00 0.00 85 1004.8
20260903204556 58 281 5.2 12.2 0.00 0.00 0.00 86 1004.9
20260903204039 57 284 4.3 12.2 0.00 0.00 0.00 86 1004.9
20260903203538 57 255 2.6 8.7 0.00 0.00 0.00 86 1005.1
20260903203100 57 269 3.5 8.7 0.00 0.00 0.00 86 1005.2
20260903202540 57 243 2.6 7.8 0.00 0.00 0.00 86 1005.5
20260903202043 58 258 2.6 10.4 0.00 0.00 0.00 86 1005.6
20260903201556 58 236 4.3 10.4 0.00 0.00 0.00 86 1005.8
20260903201039 58 263 5.2 10.4 0.00 0.00 0.00 86 1005.9
20260903200542 57 248 4.3 9.6 0.00 0.00 0.00 86 1006.2
20260903200051 57 263 4.3 9.6 0.00 0.00 0.00 87 1006.2
20260903195538 57 267 2.6 8.7 0.00 0.00 0.00 88 1006.2
20260903195039 57 98 2.6 8.7 0.00 0.00 0.00 88 1006.1
20260903194559 57 285 1.7 8.7 0.00 0.00 0.00 88 1006.2
20260903194041 57 243 2.6 7.8 0.00 0.00 0.00 88 1006.4
20260903193538 57 267 3.5 7.8 0.00 0.00 0.00 89 1006.4
20260903193057 57 40 0.9 7.0 0.00 0.00 0.00 89 1006.5
20260903192539 57 264 3.5 10.4 0.00 0.00 0.00 89 1006.6
20260903192039 57 49 4.3 10.4 0.00 0.00 0.00 89 1006.7
20260903191549 57 360 4.3 10.4 0.00 0.00 0.00 89 1006.7
20260903191039 57 301 5.2 10.4 0.00 0.00 0.00 90 1006.9
20260903190541 57 289 5.2 10.4 0.00 0.00 0.00 90 1007.0
20260903190058 57 281 7.0 10.4 0.00 0.00 0.00 90 1006.9
20260903185540 57 324 5.2 10.4 0.00 0.00 0.00 90 1007.0
20260903185038 57 284 6.1 11.3 0.00 0.00 0.00 90 1007.0
20260903184558 57 270 4.3 11.3 0.00 0.00 0.00 90 1007.0
20260903184040 57 284 4.3 9.6 0.00 0.00 0.00 90 1007.0
20260903183540 57 281 4.3 12.2 0.00 0.00 0.00 90 1007.1
20260903183055 57 276 7.0 13.9 0.00 0.00 0.00 90 1007.1
20260903182539 57 289 7.8 13.9 0.00 0.00 0.00 90 1007.2
20260903182038 57 300 8.7 13.9 0.00 0.00 0.00 91 1007.2
20260903181601 57 260 8.7 13.9 0.00 0.00 0.00 91 1007.2
20260903181039 57 275 7.8 13.0 0.00 0.00 0.00 91 1007.3
20260903180539 57 319 7.8 13.0 0.00 0.00 0.00 91 1007.1
20260903180115 57 278 7.8 13.0 0.00 0.00 0.00 91 1007.2
20260903175541 57 293 7.8 14.8 0.00 0.00 0.00 91 1007.4
20260903175041 57 273 8.7 14.8 0.00 0.00 0.00 91 1007.5
20260903174558 57 273 7.0 13.0 0.00 0.00 0.00 92 1007.6
20260903174041 57 286 6.1 12.2 0.00 0.00 0.00 92 1007.5
20260903173540 56 257 3.5 12.2 0.00 0.00 0.00 92 1007.6
20260903173057 57 312 5.2 11.3 0.00 0.00 0.00 92 1007.6
20260903172539 56 279 6.1 11.3 0.00 0.00 0.00 93 1007.7
20260903172039 56 271 6.1 13.0 0.00 0.00 0.00 93 1007.9
20260903171554 56 273 6.1 13.0 0.00 0.00 0.00 93 1007.8
20260903171040 56 321 6.1 13.0 0.00 0.00 0.00 93 1008.0
20260903170539 56 259 5.2 12.2 0.00 0.00 0.00 93 1008.0
20260903170047 57 270 5.2 12.2 0.00 0.00 0.00 93 1008.0
20260903165542 57 268 5.2 13.0 0.00 0.00 0.00 93 1008.1
20260903165044 57 259 5.2 13.9 0.00 0.00 0.00 93 1008.1
20260903164605 57 263 6.1 13.9 0.00 0.00 0.00 93 1008.2
20260903164040 57 270 7.0 12.2 0.00 0.00 0.00 93 1008.1
20260903163540 57 269 7.0 13.9 0.00 0.00 0.00 93 1008.2
20260903163055 57 288 7.8 13.9 0.00 0.00 0.00 93 1008.2
20260903162543 57 294 8.7 13.9 0.00 0.00 0.00 93 1008.1
20260903162035 57 323 7.8 13.0 0.00 0.00 0.00 93 1008.3
20260903161551 57 272 7.0 13.0 0.00 0.00 0.00 92 1008.3
20260903161035 57 291 7.0 15.6 0.00 0.00 0.00 92 1008.3
20260903160539 57 277 9.6 15.6 0.00 0.00 0.00 92 1008.2
20260903160107 57 286 9.6 14.8 0.00 0.00 0.00 92 1008.2
20260903155543 57 277 7.8 13.9 0.00 0.00 0.00 92 1008.2
20260903155036 57 321 7.8 14.8 0.00 0.00 0.00 91 1008.4
20260903154558 57 274 8.7 19.1 0.00 0.00 0.00 91 1008.5
20260903154036 57 246 10.4 19.1 0.00 0.00 0.00 91 1008.6
20260903153537 57 264 12.2 19.1 0.00 0.00 0.00 91 1008.6
20260903153054 57 283 8.7 15.6 0.00 0.00 0.00 91 1008.7
20260903152536 58 252 7.8 16.5 0.00 0.00 0.00 91 1008.8
20260903152037 58 299 10.4 16.5 0.00 0.00 0.00 90 1008.7
20260903151553 58 279 9.6 17.4 0.00 0.00 0.00 90 1008.8
20260903151036 58 300 12.2 17.4 0.00 0.00 0.00 89 1008.7
20260903150536 58 274 9.6 13.9 0.00 0.00 0.00 89 1008.8
20260903150053 58 292 8.7 13.9 0.00 0.00 0.00 89 1008.9
20260903145535 58 325 7.8 14.8 0.00 0.00 0.00 89 1009.0
20260903145038 58 274 7.8 14.8 0.00 0.00 0.00 89 1009.0
20260903144558 57 263 7.8 14.8 0.00 0.00 0.00 89 1009.0
20260903144039 57 296 7.0 12.2 0.00 0.00 0.00 89 1009.3
20260903143539 57 327 7.8 12.2 0.00 0.00 0.00 89 1009.4
20260903143056 57 28 5.2 10.4 0.00 0.00 0.00 89 1009.4
20260903142535 57 297 6.1 10.4 0.00 0.00 0.00 89 1009.5
20260903142036 56 268 4.3 7.8 0.00 0.00 0.00 90 1009.5
20260903141554 56 256 1.7 6.1 0.00 0.00 0.00 90 1009.6
20260903141037 56 287 0.0 5.2 0.00 0.00 0.00 90 1009.7
20260903140541 57 272 2.6 6.1 0.00 0.00 0.00 90 1009.8
20260903140051 57 266 2.6 12.2 0.00 0.00 0.00 90 1009.8
20260903135535 57 289 3.5 12.2 0.00 0.00 0.00 90 1010.0
20260903135036 57 68 3.5 7.8 0.00 0.00 0.00 90 1010.0
20260903134546 57 263 2.6 6.1 0.00 0.00 0.00 90 1010.1
20260903134036 57 272 2.6 7.8 0.00 0.00 0.00 90 1010.2
20260903133535 57 282 2.6 7.8 0.00 0.00 0.00 90 1010.2